FW1843 Weather Reports


time (UTC)temp
C
wind
direction
speed
KPH
gust
KPH
rain 1hr
cm
rain 24hr
cm
rain mn
cm
humidity
%
barometer
mb
20260508054504 10 360 4.8 9.7 0.00 0.10 0.10 67 1012.8
20260508053003 10 119 4.8 11.3 0.00 0.10 0.10 66 1012.4
20260508051501 10 120 4.8 11.3 0.00 0.10 0.10 65 1012.4
20260508044603 11 360 6.4 12.9 0.00 0.10 0.10 62 1012.4
20260508043102 11 360 3.2 8.0 0.00 0.10 0.10 59 1012.5
20260508041559 12 360 3.2 6.4 0.00 0.10 0.10 57 1012.6
20260508040056 12 360 3.2 9.7 0.00 0.10 0.10 56 1012.3
20260508034557 13 360 4.8 9.7 0.00 0.10 0.10 54 1012.2
20260508033050 12 117 3.2 14.5 0.00 0.10 0.10 55 1012.0
20260508031548 12 360 9.7 14.5 0.00 0.10 0.10 59 1011.7
20260508030047 12 360 4.8 16.1 0.00 0.10 0.10 59 1011.6
20260508024549 12 360 3.2 14.5 0.00 0.10 0.10 62 1011.5
20260508023043 11 360 4.8 9.7 0.00 0.10 0.10 64 1011.2
20260508021545 12 360 6.4 14.5 0.00 0.10 0.10 65 1011.1
20260508020041 12 109 8.0 14.5 0.00 0.10 0.10 64 1011.1
20260508014548 12 360 14.5 19.3 0.00 0.10 0.10 63 1010.9
20260508013043 13 360 12.9 16.1 0.00 0.10 0.10 59 1010.8
20260508011542 13 360 17.7 25.7 0.00 0.10 0.10 56 1010.7
20260508010036 13 360 19.3 30.6 0.00 0.10 0.10 60 1010.5
20260508004535 14 360 16.1 27.4 0.00 0.10 0.10 56 1010.5
20260508003052 17 265 16.1 29.0 0.00 0.10 0.10 48 1009.8
20260508001532 17 360 20.9 29.0 0.00 0.10 0.10 48 1009.8
20260508000032 17 252 19.3 29.0 0.00 0.10 0.10 49 1009.9
20260507234531 17 250 8.0 19.3 0.00 0.10 0.10 49 1009.9
20260507233033 16 232 9.7 24.1 0.00 0.10 0.10 50 1010.0
20260507231530 16 360 14.5 25.7 0.00 0.10 0.10 49 1010.0
20260507230028 17 360 11.3 30.6 0.00 0.10 0.10 46 1009.9
20260507224524 17 246 12.9 24.1 0.00 0.10 0.10 48 1010.1
20260507223021 17 273 16.1 25.7 0.00 0.10 0.10 46 1010.1
20260507221518 16 360 16.1 25.7 0.00 0.10 0.10 47 1010.4
20260507220017 16 292 16.1 29.0 0.00 0.10 0.10 48 1010.5
20260507214516 16 279 14.5 27.4 0.00 0.10 0.10 48 1010.7
20260507213046 16 279 14.5 25.7 0.00 0.10 0.10 48 1010.8
20260507211559 16 273 8.0 25.7 0.00 0.10 0.10 50 1011.0
20260507210041 15 360 14.5 25.7 0.00 0.10 0.10 51 1011.1
20260507204537 15 360 14.5 22.5 0.00 0.10 0.10 52 1011.1
20260507203036 15 360 9.7 20.9 0.00 0.10 0.10 51 1011.2
20260507201535 15 298 14.5 20.9 0.00 0.10 0.10 50 1011.1
20260507200032 15 360 8.0 19.3 0.00 0.10 0.10 50 1011.0
20260507194536 15 253 6.4 19.3 0.00 0.10 0.10 51 1010.9
20260507193034 14 360 8.0 17.7 0.00 0.10 0.10 52 1011.0
20260507191527 13 360 8.0 16.1 0.00 0.10 0.10 51 1011.1
20260507190023 13 360 4.8 16.1 0.00 0.10 0.10 53 1011.2
20260507184521 13 360 4.8 9.7 0.00 0.10 0.10 55 1011.2
20260507183021 13 332 8.0 14.5 0.00 0.10 0.10 58 1011.4
20260507181518 13 360 9.7 20.9 0.00 0.10 0.10 58 1011.6
20260507180018 13 360 11.3 20.9 0.00 0.10 0.10 61 1011.7
20260507174516 13 360 11.3 20.9 0.00 0.10 0.10 60 1011.4
20260507173014 13 360 9.7 19.3 0.00 0.10 0.10 62 1011.4
20260507171512 13 360 12.9 19.3 0.00 0.10 0.10 64 1011.6
20260507170011 12 360 8.0 16.1 0.00 0.10 0.10 64 1011.4
20260507164509 12 321 9.7 17.7 0.00 0.10 0.10 65 1011.4
20260507163007 12 360 6.4 12.9 0.00 0.10 0.10 68 1011.3
20260507161506 12 360 6.4 14.5 0.00 0.10 0.10 69 1011.4
20260507160005 12 313 6.4 14.5 0.00 0.10 0.10 72 1011.2
20260507154502 12 360 8.0 12.9 0.00 0.10 0.10 70 1011.2
20260507153002 11 360 6.4 14.5 0.00 0.10 0.10 71 1011.2
20260507151501 11 360 0.0 9.7 0.00 0.10 0.10 74 1011.2
20260507150002 11 360 6.4 12.9 0.03 0.10 0.10 77 1011.1
20260507144558 10 360 6.4 9.7 0.03 0.10 0.10 78 1011.0
20260507143103 10 360 1.6 6.4 0.05 0.10 0.10 81 1011.1
20260507141558 9 360 0.0 4.8 0.05 0.10 0.10 81 1010.9
20260507140109 9 315 3.2 6.4 0.03 0.08 0.08 79 1011.2
20260507134527 9 317 0.0 0.0 0.03 0.08 0.08 79 1011.3
20260507133023 10 317 0.0 8.0 0.00 0.05 0.05 78 1011.0
20260507131525 10 360 3.2 8.0 0.00 0.05 0.05 76 1010.9
20260507130018 9 315 6.4 12.9 0.00 0.05 0.05 77 1010.8
20260507124518 10 360 6.4 9.7 0.00 0.05 0.05 76 1010.8
20260507123021 10 360 4.8 16.1 0.05 0.05 0.05 73 1010.5
20260507121510 10 360 14.5 20.9 0.05 0.05 0.05 72 1010.4
20260507120009 10 360 8.0 19.3 0.05 0.05 0.05 73 1010.1
20260507114508 10 360 12.9 22.5 0.03 0.03 0.03 73 1010.2
20260507113002 11 278 14.5 29.0 0.00 0.00 0.00 68 1010.2
20260507111557 12 360 17.7 24.1 0.00 0.00 0.00 60 1010.1
20260507110058 12 360 12.9 25.7 0.00 0.00 0.00 60 1010.0
20260507104554 12 275 17.7 25.7 0.00 0.00 0.00 58 1010.1
20260507103052 12 360 16.1 24.1 0.00 0.00 0.00 58 1010.0
20260507101602 12 360 14.5 22.5 0.00 0.00 0.00 57 1010.1
20260507100050 12 300 16.1 22.5 0.00 0.00 0.00 57 1010.0
20260507094557 12 360 14.5 33.8 0.00 0.00 0.00 58 1009.9
20260507093046 12 360 14.5 19.3 0.00 0.00 0.00 58 1009.9
20260507091555 12 295 11.3 17.7 0.00 0.00 0.00 57 1009.6
20260507090100 12 284 17.7 22.5 0.00 0.00 0.00 59 1009.6
20260507084539 12 360 14.5 25.7 0.00 0.00 0.00 60 1009.4
20260507083040 13 360 16.1 24.1 0.00 0.00 0.00 59 1009.2
20260507081548 12 360 11.3 20.9 0.00 0.00 0.00 60 1009.2
20260507080031 12 360 11.3 19.3 0.00 0.00 0.00 59 1009.2
20260507074531 12 360 12.9 20.9 0.00 0.00 0.00 60 1009.3
20260507073027 12 360 11.3 16.1 0.00 0.00 0.00 61 1009.3
20260507071600 12 360 9.7 19.3 0.00 0.00 0.00 61 1009.4
20260507070136 12 360 11.3 19.3 0.00 0.00 0.00 62 1009.6
20260507064551 12 360 9.7 20.9 0.00 0.00 0.00 62 1009.6
20260507063047 12 360 12.9 24.1 0.00 0.00 0.00 63 1009.6
20260507061547 12 207 11.3 17.7 0.00 0.00 0.00 65 1009.7
20260507060045 12 190 17.7 22.5 0.00 0.00 0.00 66 1009.7